NOZ2FH ENGM-ENAT

Flight info

Callsign NOZ2FH
Flight time 1h 42m
Altitude 39000
Route RIBBE DCT GIGNI DCT SOMUB DCT GUBAV DCT AMIMO DCT ABASU DCT RUSST DCT ERPUG DCT UDSAM
Aircraft B738/M-SDE2E3FGHIRWXY/LB1

Departure

Time 2026-05-01 08:07
Airport Oslo-Gardermoen International Airport (ENGM)

Arrival

Time 2026-05-01 09:49
Airport Alta Airport (ENAT)
Time Latitude Longitude Altitude Speed Heading
2026-05-01 07:50 60.19532 11.09655 684 ft 0 kts 196°
2026-05-01 07:58 60.19533 11.09655 684 ft 2 kts 196°
2026-05-01 07:58 60.19544 11.09662 676 ft 0 kts 196°
2026-05-01 08:00 60.19580 11.09683 679 ft 0 kts 196°
2026-05-01 08:01 60.19570 11.09692 679 ft 3 kts 138°
2026-05-01 08:01 60.19577 11.09721 682 ft 3 kts 24°
2026-05-01 08:01 60.19604 11.09721 682 ft 5 kts 359°
2026-05-01 08:02 60.19676 11.09748 680 ft 5 kts 17°
2026-05-01 08:02 60.19735 11.09782 684 ft 15 kts 15°
2026-05-01 08:03 60.19961 11.09919 681 ft 13 kts 33°
2026-05-01 08:03 60.19960 11.10093 685 ft 13 kts 107°
2026-05-01 08:03 60.19903 11.10497 684 ft 17 kts 105°
2026-05-01 08:04 60.19831 11.11000 682 ft 20 kts 107°
2026-05-01 08:04 60.19786 11.11490 679 ft 12 kts 35°
2026-05-01 08:05 60.19962 11.11594 685 ft 15 kts 15°
2026-05-01 08:05 60.20064 11.11653 682 ft 16 kts 17°
2026-05-01 08:05 60.20084 11.11770 684 ft 11 kts 105°
2026-05-01 08:06 60.20012 11.12170 687 ft 11 kts 159°
2026-05-01 08:06 60.19637 11.11970 684 ft 83 kts 196°
2026-05-01 08:07 60.17852 11.10911 1551 ft 147 kts 197°
2026-05-01 08:07 60.15742 11.09694 2948 ft 179 kts 199°
2026-05-01 08:08 60.14416 11.08990 3265 ft 215 kts 193°
2026-05-01 08:08 60.11502 11.11882 3868 ft 274 kts 132°
2026-05-01 08:09 60.08892 11.17707 5580 ft 283 kts 135°
2026-05-01 08:09 60.07848 11.21102 6446 ft 293 kts 108°
2026-05-01 08:09 60.07718 11.25201 7309 ft 299 kts 79°
2026-05-01 08:10 60.10022 11.31759 9051 ft 297 kts 24°
2026-05-01 08:10 60.14041 11.33339 10732 ft 302 kts 359°
2026-05-01 08:11 60.18503 11.33840 11745 ft 336 kts 358°
2026-05-01 08:11 60.23221 11.34381 13628 ft 343 kts 358°
2026-05-01 08:12 60.28050 11.34983 15368 ft 352 kts 357°
2026-05-01 08:12 60.30520 11.35304 16232 ft 357 kts 357°
2026-05-01 08:12 60.35551 11.35970 17981 ft 367 kts 357°
2026-05-01 08:13 60.38116 11.36313 18799 ft 372 kts 357°
2026-05-01 08:13 60.40714 11.36662 19562 ft 376 kts 357°
2026-05-01 08:13 60.45947 11.37373 21074 ft 383 kts 357°
2026-05-01 08:14 60.48624 11.37737 21795 ft 387 kts 357°
2026-05-01 08:14 60.51327 11.38105 22508 ft 391 kts 357°
2026-05-01 08:14 60.54059 11.38477 23205 ft 395 kts 357°
2026-05-01 08:14 60.56824 11.38854 23880 ft 400 kts 357°
2026-05-01 08:15 60.59610 11.39235 24419 ft 404 kts 357°
2026-05-01 08:15 60.65267 11.40013 25564 ft 410 kts 357°
2026-05-01 08:15 60.68126 11.40408 26114 ft 413 kts 357°
2026-05-01 08:16 60.71007 11.40806 26653 ft 417 kts 357°
2026-05-01 08:16 60.73913 11.41206 27182 ft 420 kts 357°
2026-05-01 08:16 60.76845 11.41612 27694 ft 424 kts 357°
2026-05-01 08:16 60.79803 11.42021 28199 ft 427 kts 357°
2026-05-01 08:17 60.82778 11.42434 28693 ft 431 kts 358°
2026-05-01 08:17 60.85780 11.42852 29189 ft 434 kts 358°
2026-05-01 08:17 60.88762 11.43268 29669 ft 436 kts 358°
2026-05-01 08:17 60.91808 11.43694 30136 ft 439 kts 358°
2026-05-01 08:18 60.94872 11.44122 30523 ft 442 kts 357°
2026-05-01 08:18 61.01047 11.44990 31297 ft 446 kts 357°
2026-05-01 08:19 61.07276 11.45868 32050 ft 451 kts 357°
2026-05-01 08:19 61.10412 11.46310 32414 ft 453 kts 357°
2026-05-01 08:19 61.13516 11.46751 32851 ft 452 kts 357°
2026-05-01 08:19 61.16652 11.47200 33399 ft 450 kts 357°
2026-05-01 08:20 61.19762 11.47648 33944 ft 447 kts 356°
2026-05-01 08:20 61.22861 11.48092 34351 ft 447 kts 356°
2026-05-01 08:20 61.25967 11.48534 34696 ft 447 kts 356°
2026-05-01 08:20 61.29074 11.48977 35095 ft 446 kts 357°
2026-05-01 08:21 61.32163 11.49420 35514 ft 445 kts 357°
2026-05-01 08:21 61.35256 11.49864 35912 ft 444 kts 357°
2026-05-01 08:21 61.38300 11.50301 36257 ft 444 kts 357°
2026-05-01 08:21 61.41376 11.50743 36624 ft 443 kts 357°
2026-05-01 08:22 61.44452 11.51188 37007 ft 442 kts 358°
2026-05-01 08:22 61.47517 11.51631 37382 ft 441 kts 358°
2026-05-01 08:22 61.50582 11.52075 37731 ft 440 kts 358°
2026-05-01 08:22 61.53642 11.52518 38063 ft 440 kts 358°
2026-05-01 08:23 61.56696 11.52962 38422 ft 439 kts 358°
2026-05-01 08:23 61.59742 11.53406 38774 ft 438 kts 358°
2026-05-01 08:23 61.62780 11.53849 39031 ft 438 kts 358°
2026-05-01 08:23 61.65828 11.54293 39162 ft 440 kts 358°
2026-05-01 08:24 61.68857 11.54734 39163 ft 443 kts 358°
2026-05-01 08:24 61.75022 11.55640 39170 ft 443 kts 358°
2026-05-01 08:25 61.81119 11.56549 39155 ft 436 kts 358°
2026-05-01 08:25 61.86143 11.57295 39167 ft 435 kts 358°
2026-05-01 08:26 61.92184 11.58190 39162 ft 435 kts 358°
2026-05-01 08:26 61.98223 11.59089 39168 ft 436 kts 358°
2026-05-01 08:27 62.04286 11.59996 39158 ft 437 kts 358°
2026-05-01 08:27 62.10365 11.60910 39155 ft 438 kts 358°
2026-05-01 08:28 62.16427 11.61825 39155 ft 440 kts 358°
2026-05-01 08:28 62.22540 11.62752 39154 ft 441 kts 358°
2026-05-01 08:29 62.28675 11.63687 39147 ft 442 kts 358°
2026-05-01 08:29 62.34822 11.64628 39150 ft 443 kts 358°
2026-05-01 08:30 62.40981 11.65575 39155 ft 443 kts 358°
2026-05-01 08:30 62.47139 11.66525 39152 ft 443 kts 358°
2026-05-01 08:31 62.53252 11.67473 39154 ft 442 kts 358°
2026-05-01 08:31 62.59404 11.68430 39156 ft 442 kts 358°
2026-05-01 08:32 62.65528 11.69386 39151 ft 441 kts 358°
2026-05-01 08:32 62.71642 11.70345 39143 ft 440 kts 358°
2026-05-01 08:33 62.77757 11.71308 39151 ft 439 kts 358°
2026-05-01 08:33 62.83810 11.72265 39142 ft 438 kts 357°
2026-05-01 08:34 62.89884 11.73228 39132 ft 438 kts 357°
2026-05-01 08:34 62.95960 11.74197 39137 ft 437 kts 357°
2026-05-01 08:35 63.02038 11.75169 39139 ft 438 kts 357°
2026-05-01 08:35 63.08121 11.76146 39137 ft 438 kts 357°
2026-05-01 08:36 63.14230 11.77132 39140 ft 439 kts 357°
2026-05-01 08:36 63.20335 11.78121 39132 ft 440 kts 357°
2026-05-01 08:37 63.26411 11.79111 39127 ft 440 kts 357°
2026-05-01 08:37 63.32527 11.80112 39142 ft 441 kts 358°
2026-05-01 08:38 63.38606 11.83110 39145 ft 454 kts 13°
2026-05-01 08:38 63.44567 11.88002 39136 ft 457 kts 14°
2026-05-01 08:39 63.50488 11.92992 39139 ft 458 kts 14°
2026-05-01 08:39 63.56475 11.97953 39148 ft 458 kts 13°
2026-05-01 08:40 63.65487 12.05344 39149 ft 459 kts 13°
2026-05-01 08:40 63.71464 12.10258 39141 ft 460 kts 14°
2026-05-01 08:41 63.77485 12.15234 39138 ft 461 kts 14°
2026-05-01 08:41 63.83516 12.20243 39135 ft 461 kts 14°
2026-05-01 08:42 63.89538 12.25270 39140 ft 461 kts 14°
2026-05-01 08:42 63.95560 12.30319 39143 ft 461 kts 14°
2026-05-01 08:43 64.01590 12.35398 39134 ft 462 kts 14°
2026-05-01 08:43 64.07627 12.40505 39138 ft 462 kts 14°
2026-05-01 08:44 64.13658 12.45631 39135 ft 463 kts 14°
2026-05-01 08:44 64.19662 12.50759 39132 ft 463 kts 14°
2026-05-01 08:45 64.25708 12.55947 39135 ft 463 kts 14°
2026-05-01 08:45 64.31758 12.61162 39130 ft 464 kts 14°
2026-05-01 08:46 64.37810 12.66403 39133 ft 464 kts 14°
2026-05-01 08:46 64.43858 12.71667 39123 ft 464 kts 15°
2026-05-01 08:47 64.49855 12.76910 39125 ft 464 kts 15°
2026-05-01 08:47 64.55910 12.82228 39129 ft 465 kts 15°
2026-05-01 08:48 64.61958 12.87567 39123 ft 464 kts 15°
2026-05-01 08:48 64.68011 12.92934 39120 ft 465 kts 15°
2026-05-01 08:49 64.74056 12.98322 39117 ft 465 kts 15°
2026-05-01 08:49 64.80061 13.03698 39118 ft 465 kts 15°
2026-05-01 08:50 64.86110 13.09140 39118 ft 465 kts 15°
2026-05-01 08:50 64.92151 13.14601 39112 ft 464 kts 15°
2026-05-01 08:51 64.98176 13.20074 39119 ft 464 kts 15°
2026-05-01 08:51 65.04212 13.25583 39113 ft 465 kts 15°
2026-05-01 08:52 65.10226 13.31097 39112 ft 466 kts 15°
2026-05-01 08:52 65.16282 13.36679 39106 ft 467 kts 15°
2026-05-01 08:53 65.22346 13.42296 39106 ft 468 kts 16°
2026-05-01 08:53 65.28382 13.47915 39092 ft 469 kts 16°
2026-05-01 08:54 65.34456 13.53599 39080 ft 468 kts 16°
2026-05-01 08:54 65.40530 13.59311 39087 ft 468 kts 16°
2026-05-01 08:55 65.46587 13.65032 39083 ft 468 kts 16°
2026-05-01 08:55 65.52649 13.70788 39087 ft 468 kts 16°
2026-05-01 08:56 65.58719 13.76582 39070 ft 469 kts 16°
2026-05-01 08:56 65.64741 13.82358 39070 ft 469 kts 16°
2026-05-01 08:57 65.70806 13.88205 39071 ft 469 kts 16°
2026-05-01 08:57 65.76880 13.94087 39060 ft 469 kts 16°
2026-05-01 08:58 65.82907 14.00335 39065 ft 471 kts 18°
2026-05-01 08:58 65.88895 14.06954 39059 ft 472 kts 19°
2026-05-01 08:59 65.94891 14.13610 39053 ft 473 kts 19°
2026-05-01 08:59 66.00894 14.20243 39044 ft 473 kts 19°
2026-05-01 09:00 66.06876 14.26855 39044 ft 474 kts 19°
2026-05-01 09:00 66.12901 14.33543 39030 ft 474 kts 19°
2026-05-01 09:01 66.18923 14.40266 39026 ft 474 kts 19°
2026-05-01 09:01 66.24934 14.47013 39022 ft 474 kts 19°
2026-05-01 09:02 66.30909 14.53756 39021 ft 474 kts 19°
2026-05-01 09:02 66.36919 14.60574 39035 ft 474 kts 19°
2026-05-01 09:03 66.42928 14.67425 39022 ft 475 kts 19°
2026-05-01 09:03 66.48939 14.74317 39024 ft 475 kts 19°
2026-05-01 09:04 66.54952 14.81248 39016 ft 475 kts 19°
2026-05-01 09:04 66.60958 14.88209 39016 ft 475 kts 19°
2026-05-01 09:05 66.66956 14.95197 39004 ft 474 kts 19°
2026-05-01 09:05 66.72901 15.02160 38991 ft 474 kts 19°
2026-05-01 09:06 66.78886 15.09209 38992 ft 474 kts 19°
2026-05-01 09:06 66.84888 15.16313 38981 ft 475 kts 19°
2026-05-01 09:07 66.90872 15.23436 38979 ft 475 kts 19°
2026-05-01 09:07 66.96863 15.30607 38967 ft 475 kts 19°
2026-05-01 09:08 67.02807 15.37760 38978 ft 475 kts 20°
2026-05-01 09:08 67.08800 15.45010 38964 ft 477 kts 20°
2026-05-01 09:09 67.14807 15.52321 38969 ft 477 kts 20°
2026-05-01 09:09 67.20808 15.59662 38971 ft 478 kts 20°
2026-05-01 09:10 67.26819 15.67058 38963 ft 478 kts 20°
2026-05-01 09:10 67.32798 15.74455 38971 ft 479 kts 20°
2026-05-01 09:11 67.38808 15.81931 38962 ft 479 kts 20°
2026-05-01 09:11 67.44804 15.89434 38938 ft 477 kts 20°
2026-05-01 09:12 67.50769 15.96941 38948 ft 475 kts 20°
2026-05-01 09:12 67.56718 16.04468 38943 ft 474 kts 20°
2026-05-01 09:13 67.61650 16.10738 38925 ft 474 kts 20°
2026-05-01 09:13 67.67588 16.18328 38918 ft 473 kts 21°
2026-05-01 09:14 67.73506 16.25934 38925 ft 473 kts 21°
2026-05-01 09:14 67.79422 16.33583 38914 ft 473 kts 21°
2026-05-01 09:15 67.85331 16.41263 38916 ft 473 kts 21°
2026-05-01 09:15 67.90905 16.50863 38906 ft 482 kts 34°
2026-05-01 09:16 67.96082 16.62251 38889 ft 483 kts 36°
2026-05-01 09:17 68.03791 16.79414 38886 ft 483 kts 36°
2026-05-01 09:17 68.11581 16.96571 38877 ft 483 kts 36°
2026-05-01 09:18 68.19368 17.13825 38864 ft 484 kts 36°
2026-05-01 09:19 68.27101 17.31138 38851 ft 483 kts 36°
2026-05-01 09:20 68.34838 17.48620 38841 ft 483 kts 36°
2026-05-01 09:21 68.45122 17.72107 38833 ft 482 kts 37°
2026-05-01 09:21 68.52808 17.89848 38828 ft 483 kts 37°
2026-05-01 09:22 68.62831 18.14632 37723 ft 489 kts 42°
2026-05-01 09:23 68.65206 18.21300 37127 ft 488 kts 43°
2026-05-01 09:23 68.69896 18.34613 35913 ft 487 kts 42°
2026-05-01 09:24 68.74638 18.47983 34637 ft 489 kts 41°
2026-05-01 09:24 68.77006 18.54641 34146 ft 485 kts 41°
2026-05-01 09:24 68.81720 18.67911 33073 ft 480 kts 41°
2026-05-01 09:25 68.86361 18.81055 32068 ft 473 kts 41°
2026-05-01 09:25 68.90882 18.93946 31175 ft 465 kts 41°
2026-05-01 09:26 68.93134 19.00394 30714 ft 463 kts 40°
2026-05-01 09:26 68.97582 19.13192 29796 ft 457 kts 40°
2026-05-01 09:26 68.99784 19.19556 29251 ft 454 kts 40°
2026-05-01 09:27 69.04107 19.32117 28312 ft 443 kts 40°
2026-05-01 09:27 69.06232 19.38321 27849 ft 439 kts 40°
2026-05-01 09:27 69.08333 19.44469 27380 ft 436 kts 40°
2026-05-01 09:28 69.10417 19.50581 26945 ft 432 kts 40°
2026-05-01 09:28 69.12482 19.56660 26473 ft 428 kts 40°
2026-05-01 09:28 69.14517 19.62669 26065 ft 423 kts 40°
2026-05-01 09:28 69.16536 19.68644 25606 ft 420 kts 40°
2026-05-01 09:29 69.20519 19.80484 24757 ft 414 kts 40°
2026-05-01 09:29 69.22493 19.86374 24328 ft 412 kts 40°
2026-05-01 09:30 69.26404 19.98098 23472 ft 407 kts 41°
2026-05-01 09:30 69.28308 20.03832 22995 ft 405 kts 41°
2026-05-01 09:30 69.32129 20.15386 22104 ft 398 kts 41°
2026-05-01 09:31 69.34011 20.21102 21670 ft 396 kts 41°
2026-05-01 09:31 69.35878 20.26787 21232 ft 393 kts 41°
2026-05-01 09:31 69.39562 20.38050 20445 ft 386 kts 41°
2026-05-01 09:32 69.41388 20.43650 20024 ft 385 kts 41°
2026-05-01 09:32 69.45005 20.54795 19198 ft 381 kts 41°
2026-05-01 09:32 69.46795 20.60331 18838 ft 378 kts 41°
2026-05-01 09:33 69.48574 20.65848 18423 ft 377 kts 41°
2026-05-01 09:33 69.50342 20.71348 17987 ft 376 kts 42°
2026-05-01 09:33 69.53825 20.82223 17151 ft 371 kts 42°
2026-05-01 09:34 69.55563 20.87671 16725 ft 370 kts 42°
2026-05-01 09:34 69.57294 20.93111 16304 ft 368 kts 42°
2026-05-01 09:34 69.60716 21.03910 15532 ft 363 kts 42°
2026-05-01 09:35 69.62408 21.09271 15104 ft 361 kts 42°
2026-05-01 09:35 69.65753 21.19903 14353 ft 358 kts 42°
2026-05-01 09:35 69.67419 21.25221 13931 ft 356 kts 42°
2026-05-01 09:36 69.69068 21.30497 13578 ft 353 kts 43°
2026-05-01 09:36 69.70706 21.35751 13140 ft 353 kts 42°
2026-05-01 09:36 69.72344 21.41016 12732 ft 352 kts 43°
2026-05-01 09:36 69.73956 21.46211 12316 ft 351 kts 43°
2026-05-01 09:37 69.75596 21.51512 11953 ft 347 kts 43°
2026-05-01 09:37 69.78765 21.61800 11114 ft 341 kts 43°
2026-05-01 09:37 69.80331 21.66903 10804 ft 336 kts 43°
2026-05-01 09:38 69.83405 21.76940 10019 ft 334 kts 43°
2026-05-01 09:38 69.84934 21.81955 9815 ft 327 kts 43°
2026-05-01 09:38 69.86429 21.86876 9490 ft 324 kts 43°
2026-05-01 09:39 69.89392 21.96639 8778 ft 320 kts 43°
2026-05-01 09:39 69.90861 22.01502 8399 ft 319 kts 43°
2026-05-01 09:39 69.92316 22.06329 8080 ft 314 kts 43°
2026-05-01 09:40 69.93752 22.11102 7743 ft 312 kts 44°
2026-05-01 09:40 69.96594 22.20579 7032 ft 308 kts 44°
2026-05-01 09:40 69.97995 22.25271 6712 ft 305 kts 44°
2026-05-01 09:41 69.99354 22.29831 6543 ft 296 kts 44°
2026-05-01 09:41 70.01967 22.38629 6204 ft 270 kts 44°
2026-05-01 09:41 70.03149 22.42630 6085 ft 248 kts 44°
2026-05-01 09:42 70.04229 22.46299 5894 ft 227 kts 43°
2026-05-01 09:42 70.05223 22.49678 5806 ft 211 kts 43°
2026-05-01 09:42 70.07096 22.56149 5696 ft 209 kts 44°
2026-05-01 09:43 70.08904 22.62576 5514 ft 202 kts 46°
2026-05-01 09:43 70.09826 22.65851 5421 ft 212 kts 45°
2026-05-01 09:43 70.10572 22.69614 5170 ft 218 kts 75°
2026-05-01 09:44 70.09919 22.77646 4786 ft 198 kts 119°
2026-05-01 09:44 70.09289 22.81145 4591 ft 190 kts 123°
2026-05-01 09:44 70.08630 22.84411 4415 ft 183 kts 125°
2026-05-01 09:45 70.07975 22.87542 4269 ft 178 kts 125°
2026-05-01 09:45 70.06672 22.93740 3996 ft 179 kts 125°
2026-05-01 09:45 70.06013 22.96874 3741 ft 181 kts 125°
2026-05-01 09:46 70.05356 23.00009 3442 ft 179 kts 125°
2026-05-01 09:46 70.04724 23.03026 3138 ft 173 kts 125°
2026-05-01 09:46 70.04109 23.05960 2872 ft 163 kts 124°
2026-05-01 09:46 70.03530 23.08730 2579 ft 155 kts 124°
2026-05-01 09:47 70.02987 23.11326 2320 ft 145 kts 124°
2026-05-01 09:47 70.02469 23.13801 2072 ft 142 kts 124°
2026-05-01 09:47 70.01950 23.16280 1827 ft 144 kts 124°
2026-05-01 09:47 70.01433 23.18763 1575 ft 142 kts 124°
2026-05-01 09:48 70.00921 23.21218 1332 ft 141 kts 124°
2026-05-01 09:48 70.00412 23.23659 1096 ft 140 kts 123°
2026-05-01 09:48 69.99906 23.26095 852 ft 140 kts 124°
2026-05-01 09:48 69.99402 23.28515 633 ft 140 kts 124°
2026-05-01 09:49 69.98907 23.30899 406 ft 138 kts 124°
2026-05-01 09:49 69.98416 23.33290 154 ft 137 kts 124°
2026-05-01 09:49 69.97929 23.35621 21 ft 127 kts 125°
2026-05-01 09:49 69.97620 23.37113 18 ft 47 kts 121°
2026-05-01 09:50 69.97514 23.37540 18 ft 9 kts 130°
2026-05-01 09:50 69.97519 23.37617 19 ft 2 kts 21°
2026-05-01 09:50 69.97527 23.37587 19 ft 3 kts 298°
2026-05-01 09:50 69.97551 23.37453 19 ft 15 kts 297°
2026-05-01 09:51 69.97616 23.37136 17 ft 19 kts 300°
2026-05-01 09:51 69.97686 23.36805 19 ft 19 kts 301°
2026-05-01 09:51 69.97758 23.36452 18 ft 21 kts 301°
2026-05-01 09:51 69.97840 23.36057 16 ft 24 kts 301°
2026-05-01 09:52 69.97925 23.35648 19 ft 23 kts 301°
2026-05-01 09:52 69.97911 23.35342 18 ft 17 kts 212°
2026-05-01 09:52 69.97866 23.35097 18 ft 7 kts 269°
2026-05-01 09:52 69.97888 23.34944 18 ft 10 kts 300°
2026-05-01 09:53 69.97885 23.34826 18 ft 6 kts 225°
2026-05-01 09:53 69.97839 23.34744 18 ft 0 kts 209°